Hourly Data Report for November 13, 2019

All times are specified in Local Standard Time (LST). Add 1 hour to adjust for Daylight Saving Time where and when it is observed.

PINAWA
MANITOBA
Current Station Operator: ECCC - MSC

50°10'38.020" N
96°03'53.000" W
268.00 m
503B1ER
71448
WEA

Download Data

Hourly Data (November 2019)
Hourly Data Report for November 13, 2019
TIME Temp Definition
°C
Dew Point Definition
°C
Rel Hum Definition
%
Wind Dir Definition
10's deg

Wind Spd Definition
km/h
Visibility Definition
km
Stn Press Definition
kPa
Hmdx Definition


Wind Chill Definition


Weather Definition


00:00 -7.6 LegendMM LegendMM 17 9   97.60   -12 LegendNANA
01:00 -7.6 LegendMM LegendMM 17 8   97.57   -12 LegendNANA
02:00 -7.4 LegendMM LegendMM 17 6   97.57   -11 LegendNANA
03:00 -7.2 LegendMM LegendMM 18 6   97.59   -10 LegendNANA
04:00 -7.1 LegendMM LegendMM 22 4   97.61   -9 LegendNANA
05:00 -7.1 LegendMM LegendMM 27 6   97.67   -10 LegendNANA
06:00 -7.1 LegendMM LegendMM 31 13   97.73   -13 LegendNANA
07:00 -7.7 LegendMM LegendMM 31 14   97.82   -14 LegendNANA
08:00 -7.8 LegendMM LegendMM 31 16   97.90   -14 LegendNANA
09:00 -7.8 LegendMM LegendMM 32 14   98.00   -14 LegendNANA
10:00 -7.3 LegendMM LegendMM 31 18   98.08   -14 LegendNANA
11:00 -6.9 LegendMM LegendMM 31 21   98.14   -14 LegendNANA
12:00 -6.8 LegendMM LegendMM 32 19   98.18   -14 LegendNANA
13:00 -6.6 LegendMM LegendMM 32 20   98.23   -14 LegendNANA
14:00 -7.0 LegendMM LegendMM 32 18   98.30   -14 LegendNANA
15:00 -7.2 LegendMM LegendMM 32 15   98.36   -13 LegendNANA
16:00 -7.8 LegendMM LegendMM 32 16   98.42   -14 LegendNANA
17:00 -8.0 LegendMM LegendMM 31 16   98.49   -15 LegendNANA
18:00 -8.6 LegendMM LegendMM 34 10   98.56   -14 LegendNANA
19:00 -8.7 LegendMM LegendMM 33 8   98.62   -13 LegendNANA
20:00 -8.7 LegendMM LegendMM 31 7   98.64   -13 LegendNANA
21:00 -8.7 LegendMM LegendMM 29 10   98.67   -14 LegendNANA
22:00 -8.8 LegendMM LegendMM 30 8   98.67   -13 LegendNANA
23:00 -9.0 LegendMM LegendMM 26 5   98.66   -12 LegendNANA

Notes on Data Quality.

Legend

  • E = Estimated
  • M = Missing
  • NA = Not Available
Date modified: